Home   Weather   Simi Valley   Past weeks

Flag for USA Past Weather in Simi Valley, California, USA — Yesterday and Last 2 Weeks

Now
95 °F

Sunny.


Feels Like: 90 °F
Forecast: 68 / 98 °F
Wind: No wind

Location: Van Nuys Airport

Current Time: Sep 26, 2016 at 12:06:32 PM

Latest Report: Sep 26, 2016 at 10:51 AM


Visibility: 10 mi

Pressure: 29.94 "Hg

Humidity: 12%

Dew Point: 34 °F

Location of Simi ValleyLocation

Past Weather in Simi Valley — Graph

°F

Simi Valley Temperature Yesterday

Maximum temperature yesterday: 100 °F (at 2:51 PM)
Minimum temperature yesterday: 64 °F (at 6:51 AM)
Average temperature yesterday: 83 °F

High & Low Weather Summary for the Past Weeks

 TemperatureHumidityPressure
High103 °F (Sep 18, 12:51 PM)96% (Sep 12, 1:51 AM)30.06 "Hg (Sep 12, 1:51 AM)
Low55 °F (Sep 14, 5:51 AM)4% (Sep 25, 2:51 PM)29.78 "Hg (Sep 21, 4:51 PM)
Average74 °F49%29.92 "Hg
* Reported Sep 11 10:51 AM — Sep 26 10:51 AM, Simi Valley, Weather by CustomWeather, © 2016

Note: Actual official high and low records may vary slightly from our data, if they occured in-between our weather recording intervals... More about our weather records

Advertising

Simi Valley Weather History for the Previous 24 Hours

Scroll right to see more
 ConditionsComfort  
Time TempWeatherWind HumidityBarometerVisibility
10:51 AM
Mon, Sep 26
95 °FSunny.No wind12%29.94 "Hg10 mi
9:51 AM88 °FSunny.5 mph15%29.95 "Hg10 mi
8:51 AM78 °FSunny.5 mph21%29.96 "Hg10 mi
7:51 AM72 °FSunny.3 mph26%29.96 "Hg10 mi
6:51 AM65 °FSunny.No wind36%29.95 "Hg10 mi
5:51 AM67 °FClear.No wind31%29.94 "Hg10 mi
4:51 AM68 °FClear.No wind30%29.93 "Hg10 mi
3:51 AM69 °FClear.3 mph29%29.92 "Hg10 mi
2:51 AM69 °FClear.8 mph27%29.93 "Hg10 mi
1:51 AM71 °FClear.5 mph25%29.94 "Hg10 mi
12:51 AM76 °FClear.3 mph18%29.94 "Hg10 mi
11:51 PM
Sun, Sep 25
74 °FClear.3 mph17%29.94 "Hg10 mi
10:51 PM80 °FClear.No wind12%29.92 "Hg10 mi
9:51 PM85 °FClear.7 mph9%29.92 "Hg10 mi
8:51 PM88 °FClear.5 mph8%29.91 "Hg10 mi
7:51 PM91 °FClear.14 mph6%29.90 "Hg10 mi
6:51 PM93 °FClear.13 mph6%29.88 "Hg10 mi
5:51 PM96 °FSunny.15 mph5%29.88 "Hg10 mi
4:51 PM98 °FSunny.15 mph4%29.88 "Hg10 mi
3:51 PM99 °FSunny.20 mph4%29.89 "Hg10 mi
2:51 PM100 °FSunny.22 mph4%29.90 "Hg10 mi
1:51 PM99 °FSunny.21 mph5%29.93 "Hg10 mi
12:51 PM97 °FPassing clouds.21 mph5%29.95 "Hg9 mi
Weather by CustomWeather, © 2016

See weather overviewHow to use our weather pages